Location: ???????
(55.2903°N, 39.1554°E)
Time: 13:28:06
(UTC+00:00)

Cosmos 2219 Rocket - Pass Details

Date: 14 April 2024
Orbit: 827 x 845 km, 71.0° (Epoch: 23 May)

Event Time Altitude Azimuth Distance (km) Brightness Sun altitude
Exits shadow 00:27:16 22° 236° (SW) 1,741 3.2 -14.8°
Maximum altitude 00:30:51 60° 310° (NW) 950 2.4 -14.4°
Drops below altitude 10° 00:36:24 10° 30° (NNE) 2,445 5.8 -13.8°
Sets 00:38:53 0° 35° (NE) 3,383 7.0 -13.5°
